GW3356 Weather Reports


Display with metric or nautical units.
time (UTC)temp
F
wind
direction
speed
MPH
gust
MPH
rain 1hr
in
rain 24hr
in
rain mn
in
humidity
%
barometer
mb
20260510220125 70 54 0.0 0.0 0.00 0.00 0.00 36 1019.0
20260510215623 70 57 0.0 1.0 0.00 0.00 0.00 32 1019.1
20260510215121 70 55 0.0 0.0 0.00 0.00 0.00 33 1019.2
20260510214618 70 55 0.0 0.0 0.00 0.00 0.00 30 1019.4
20260510214114 70 59 0.0 2.0 0.00 0.00 0.00 30 1019.2
20260510213611 71 52 0.0 1.0 0.00 0.00 0.00 31 1019.1
20260510213107 70 25 1.0 1.0 0.00 0.00 0.00 33 1019.2
20260510212604 71 59 0.0 1.0 0.00 0.00 0.00 29 1019.3
20260510212102 73 57 0.0 1.0 0.00 0.00 0.00 30 1019.3
20260510211558 73 59 0.0 0.0 0.00 0.00 0.00 29 1019.2
20260510211058 75 59 0.0 1.0 0.00 0.00 0.00 29 1019.6
20260510210555 73 55 0.0 1.0 0.00 0.00 0.00 29 1019.5
20260510210050 73 57 0.0 0.0 0.00 0.00 0.00 31 1019.6
20260510205549 73 55 0.0 1.0 0.00 0.00 0.00 29 1019.3
20260510205045 73 56 0.0 0.0 0.00 0.00 0.00 33 1019.5
20260510204542 73 56 0.0 1.0 0.00 0.00 0.00 30 1019.3
20260510204038 73 54 0.0 1.0 0.00 0.00 0.00 30 1019.3
20260510203535 72 55 0.0 2.0 0.00 0.00 0.00 30 1019.2
20260510203032 72 55 1.0 2.0 0.00 0.00 0.00 29 1019.2
20260510202531 72 62 0.0 1.0 0.00 0.00 0.00 31 1019.2
20260510202028 72 63 0.0 1.0 0.00 0.00 0.00 31 1019.3
20260510201525 72 39 0.0 1.0 0.00 0.00 0.00 28 1019.4
20260510201021 72 59 0.0 3.0 0.00 0.00 0.00 32 1019.4
20260510200517 72 56 0.0 1.0 0.00 0.00 0.00 30 1019.2
20260510200015 72 54 0.0 1.0 0.00 0.00 0.00 33 1019.5
20260510195513 71 55 0.0 0.0 0.00 0.00 0.00 35 1019.3
20260510195008 71 55 0.0 0.0 0.00 0.00 0.00 32 1019.2
20260510194504 70 57 1.0 4.0 0.00 0.00 0.00 32 1019.4
20260510194001 70 54 0.0 1.0 0.00 0.00 0.00 33 1019.3
20260510193500 69 57 0.0 1.0 0.00 0.00 0.00 34 1019.3
20260510192956 70 62 1.0 1.0 0.00 0.00 0.00 34 1019.3
20260510192451 70 57 0.0 2.0 0.00 0.00 0.00 33 1019.4
20260510191948 68 47 1.0 2.0 0.00 0.00 0.00 36 1019.4
20260510191444 68 57 1.0 1.0 0.00 0.00 0.00 31 1019.5
20260510190941 67 57 0.0 1.0 0.00 0.00 0.00 34 1019.3
20260510190439 67 61 0.0 4.0 0.00 0.00 0.00 35 1019.4
20260510185935 67 55 0.0 1.0 0.00 0.00 0.00 31 1019.3
20260510185433 68 58 0.0 2.0 0.00 0.00 0.00 33 1019.2
20260510184929 69 46 1.0 2.0 0.00 0.00 0.00 35 1019.2
20260510184427 70 47 0.0 2.0 0.00 0.00 0.00 33 1019.3
20260510183925 71 47 2.0 2.0 0.00 0.00 0.00 30 1019.3
20260510183423 70 57 0.0 0.0 0.00 0.00 0.00 33 1019.2
20260510182918 70 59 0.0 1.0 0.00 0.00 0.00 30 1019.1
20260510182414 69 49 1.0 1.0 0.00 0.00 0.00 34 1019.0
20260510181910 69 54 0.0 3.0 0.00 0.00 0.00 34 1019.0
20260510181408 68 54 1.0 2.0 0.00 0.00 0.00 35 1018.9
20260510180904 68 56 0.0 2.0 0.00 0.00 0.00 40 1018.8
20260510180401 67 64 0.0 1.0 0.00 0.00 0.00 42 1018.9
20260510175858 66 52 1.0 1.0 0.00 0.00 0.00 36 1019.0
20260510175354 66 56 0.0 1.0 0.00 0.00 0.00 43 1019.2
20260510174850 65 55 0.0 1.0 0.00 0.00 0.00 41 1019.1
20260510174348 65 50 0.0 1.0 0.00 0.00 0.00 37 1019.4
20260510173844 65 50 0.0 2.0 0.00 0.00 0.00 38 1019.1
20260510173340 65 63 0.0 1.0 0.00 0.00 0.00 40 1019.3
20260510172836 66 57 0.0 1.0 0.00 0.00 0.00 40 1019.5
20260510172333 66 52 0.0 1.0 0.00 0.00 0.00 39 1019.4
20260510171829 66 64 0.0 2.0 0.00 0.00 0.00 39 1019.2
20260510171326 66 50 0.0 2.0 0.00 0.00 0.00 43 1019.4
20260510170823 66 45 0.0 2.0 0.00 0.00 0.00 46 1019.5
20260510170319 65 48 0.0 1.0 0.00 0.00 0.00 46 1019.4
20260510165814 64 48 0.0 2.0 0.00 0.00 0.00 46 1019.6
20260510165312 63 52 0.0 1.0 0.00 0.00 0.00 51 1019.5
20260510164809 63 49 0.0 0.0 0.00 0.00 0.00 48 1019.4
20260510164307 63 50 0.0 1.0 0.00 0.00 0.00 47 1019.4
20260510163806 63 51 0.0 0.0 0.00 0.00 0.00 49 1019.5
20260510163302 64 47 0.0 0.0 0.00 0.00 0.00 46 1019.5
20260510162802 64 52 1.0 1.0 0.00 0.00 0.00 45 1019.6
20260510162259 64 54 0.0 2.0 0.00 0.00 0.00 45 1019.3
20260510161755 65 53 0.0 1.0 0.00 0.00 0.00 43 1019.7
20260510161251 65 48 0.0 1.0 0.00 0.00 0.00 48 1019.7
20260510160748 64 53 0.0 2.0 0.00 0.00 0.00 48 1019.7
20260510160244 63 52 0.0 1.0 0.00 0.00 0.00 48 1019.8
20260510155740 63 35 1.0 3.0 0.00 0.00 0.00 48 1019.7
20260510155236 62 53 1.0 2.0 0.00 0.00 0.00 50 1019.7
20260510154732 62 49 0.0 1.0 0.00 0.00 0.00 51 1019.5
20260510154228 62 47 0.0 0.0 0.00 0.00 0.00 52 1019.5
20260510153723 62 58 0.0 1.0 0.00 0.00 0.00 51 1019.5
20260510153219 62 51 0.0 0.0 0.00 0.00 0.00 51 1019.4
20260510152716 63 55 0.0 2.0 0.00 0.00 0.00 50 1019.1
20260510152212 62 49 0.0 1.0 0.00 0.00 0.00 49 1019.0
20260510151709 62 55 0.0 1.0 0.00 0.00 0.00 51 1019.0
20260510151208 62 54 0.0 2.0 0.00 0.00 0.00 50 1019.0
20260510150703 62 50 0.0 0.0 0.00 0.00 0.00 51 1018.8
20260510150158 62 46 0.0 1.0 0.00 0.00 0.00 50 1018.8
20260510145655 62 43 0.0 2.0 0.00 0.00 0.00 49 1019.0
20260510145151 63 59 1.0 1.0 0.00 0.00 0.00 48 1018.9
20260510144647 62 55 0.0 2.0 0.00 0.00 0.00 50 1019.2
20260510144144 62 43 1.0 6.0 0.00 0.00 0.00 51 1018.6
20260510143639 62 44 0.0 1.0 0.00 0.00 0.00 51 1018.4
20260510143136 62 54 0.0 1.0 0.00 0.00 0.00 50 1018.6
20260510142632 61 38 0.0 1.0 0.00 0.00 0.00 50 1018.3
20260510142129 61 60 1.0 2.0 0.00 0.00 0.00 56 1018.3
20260510141626 60 52 0.0 1.0 0.00 0.00 0.00 57 1018.2
20260510141124 60 330 0.0 2.0 0.00 0.00 0.00 59 1018.2
20260510140620 59 60 0.0 1.0 0.00 0.00 0.00 57 1017.6
20260510140119 59 40 0.0 1.0 0.00 0.00 0.00 59 1018.0
20260510135615 59 47 0.0 1.0 0.00 0.00 0.00 60 1018.1
20260510135111 59 48 0.0 1.0 0.00 0.00 0.00 62 1018.2
20260510134608 58 48 0.0 1.0 0.00 0.00 0.00 64 1018.2
20260510134106 58 50 0.0 1.0 0.00 0.00 0.00 64 1018.1
20260510133602 58 47 0.0 1.0 0.00 0.00 0.00 61 1018.2
20260510133057 58 52 0.0 0.0 0.00 0.00 0.00 64 1018.1
20260510132554 57 49 0.0 1.0 0.00 0.00 0.00 62 1018.1
20260510132051 57 50 0.0 1.0 0.00 0.00 0.00 63 1018.1
20260510131549 57 51 0.0 1.0 0.00 0.00 0.00 66 1018.1
20260510131046 57 50 0.0 0.0 0.00 0.00 0.00 66 1017.9
20260510130542 57 47 0.0 1.0 0.00 0.00 0.00 71 1018.0
20260510130040 57 50 0.0 0.0 0.00 0.00 0.00 70 1017.7
20260510125536 57 51 0.0 1.0 0.00 0.00 0.00 70 1017.8
20260510125032 56 55 0.0 1.0 0.00 0.00 0.00 74 1017.8
20260510124529 56 52 0.0 2.0 0.00 0.00 0.00 81 1017.5
20260510124026 56 49 0.0 1.0 0.00 0.00 0.00 77 1017.4
20260510123521 56 51 0.0 1.0 0.00 0.00 0.00 79 1017.2
20260510123018 55 48 0.0 1.0 0.00 0.00 0.00 78 1017.1
20260510122513 55 50 0.0 0.0 0.00 0.00 0.00 80 1017.0
20260510122010 55 51 0.0 0.0 0.00 0.00 0.00 81 1017.0
20260510121507 55 49 0.0 0.0 0.00 0.00 0.00 81 1017.0
20260510121004 55 52 0.0 0.0 0.00 0.00 0.00 82 1016.8
20260510120501 55 48 0.0 0.0 0.00 0.00 0.00 84 1016.9
20260510115957 55 49 0.0 0.0 0.00 0.00 0.00 84 1016.7
20260510115454 55 50 0.0 0.0 0.00 0.00 0.00 85 1016.6
20260510114950 55 52 0.0 0.0 0.00 0.00 0.00 85 1016.9
20260510114447 55 52 0.0 0.0 0.00 0.00 0.00 85 1016.3
20260510113943 55 55 0.0 0.0 0.00 0.00 0.00 85 1016.3
20260510113438 55 45 0.0 1.0 0.00 0.00 0.00 86 1016.3
20260510112936 55 50 0.0 1.0 0.00 0.00 0.00 87 1015.9
20260510112433 55 54 0.0 1.0 0.00 0.00 0.00 88 1015.7
20260510111929 55 51 0.0 0.0 0.00 0.00 0.00 88 1015.5
20260510111425 55 55 0.0 1.0 0.00 0.00 0.00 88 1015.7
20260510110921 55 50 0.0 0.0 0.00 0.00 0.00 90 1015.4
20260510110418 55 52 0.0 0.0 0.00 0.00 0.00 90 1015.3
20260510105914 55 51 0.0 0.0 0.00 0.00 0.00 91 1015.2
20260510105415 55 48 0.0 0.0 0.00 0.00 0.00 91 1015.0
20260510104910 55 51 0.0 0.0 0.00 0.00 0.00 92 1015.0
20260510104407 56 48 0.0 0.0 0.00 0.00 0.00 92 1015.0
20260510103904 56 48 0.0 0.0 0.00 0.00 0.00 93 1014.9
20260510103401 56 52 0.0 0.0 0.00 0.00 0.00 93 1015.0
20260510102856 56 49 0.0 0.0 0.00 0.00 0.00 94 1014.8
20260510102352 56 51 0.0 0.0 0.00 0.00 0.00 94 1014.9
20260510101850 56 51 0.0 0.0 0.00 0.00 0.00 95 1014.6
20260510101348 56 50 0.0 0.0 0.00 0.00 0.00 95 1014.7
20260510100844 56 53 0.0 0.0 0.00 0.00 0.00 95 1014.6
20260510100341 56 53 0.0 0.0 0.00 0.00 0.00 95 1014.6
20260510095838 56 53 0.0 0.0 0.00 0.00 0.00 95 1014.7
20260510095333 56 54 0.0 0.0 0.00 0.00 0.00 95 1014.5
20260510094832 56 54 0.0 0.0 0.00 0.00 0.00 95 1014.6
20260510094327 56 54 0.0 0.0 0.00 0.00 0.00 95 1014.5
20260510093824 56 54 0.0 0.0 0.00 0.00 0.00 95 1014.6
20260510093320 56 54 0.0 0.0 0.00 0.00 0.00 95 1014.4
20260510092817 56 54 0.0 0.0 0.00 0.00 0.00 95 1014.5
20260510092312 57 54 0.0 0.0 0.00 0.00 0.00 95 1014.2
20260510091808 57 54 0.0 0.0 0.00 0.00 0.00 95 1014.2
20260510091306 57 51 0.0 0.0 0.00 0.00 0.00 95 1014.1
20260510090802 56 51 0.0 0.0 0.00 0.00 0.00 95 1014.2
20260510090259 56 50 0.0 0.0 0.00 0.00 0.00 95 1013.8
20260510085755 57 51 0.0 0.0 0.00 0.00 0.00 95 1013.9
20260510085249 57 51 0.0 0.0 0.00 0.00 0.00 95 1013.7
20260510084745 57 51 0.0 0.0 0.00 0.00 0.00 95 1013.7
20260510084242 57 51 0.0 0.0 0.00 0.00 0.00 95 1013.5
20260510083739 57 51 0.0 0.0 0.00 0.00 0.00 95 1013.6
20260510083236 57 51 0.0 0.0 0.00 0.00 0.00 94 1013.4
20260510082731 57 51 0.0 0.0 0.00 0.00 0.00 94 1013.3
20260510082228 58 51 0.0 0.0 0.00 0.00 0.00 95 1013.2
20260510081728 58 51 0.0 0.0 0.00 0.00 0.00 94 1013.1
20260510081224 58 51 0.0 0.0 0.00 0.00 0.00 94 1013.2
20260510080719 58 51 0.0 0.0 0.00 0.00 0.00 94 1012.9
20260510080215 58 51 0.0 0.0 0.00 0.00 0.00 94 1012.8
20260510075712 58 51 0.0 0.0 0.00 0.00 0.00 94 1012.8
20260510075210 59 51 0.0 0.0 0.00 0.00 0.00 94 1012.7
20260510074706 59 51 0.0 0.0 0.00 0.00 0.00 94 1012.4
20260510074202 59 51 0.0 0.0 0.00 0.00 0.00 94 1012.3
20260510073659 59 51 0.0 0.0 0.00 0.00 0.00 94 1012.5
20260510073155 59 50 0.0 0.0 0.00 0.00 0.00 94 1012.5
20260510072651 59 50 0.0 0.0 0.00 0.00 0.00 94 1012.5
20260510072148 59 50 0.0 0.0 0.00 0.00 0.00 94 1012.4
20260510071644 59 50 0.0 0.0 0.00 0.00 0.00 94 1012.4
20260510071141 59 53 0.0 0.0 0.00 0.00 0.00 94 1012.0
20260510070639 60 57 0.0 0.0 0.00 0.00 0.00 94 1012.0
20260510070136 60 50 0.0 0.0 0.00 0.00 0.00 94 1012.2
20260510065631 60 50 0.0 0.0 0.00 0.00 0.00 94 1012.5
20260510065128 60 51 0.0 0.0 0.00 0.00 0.00 94 1012.6
20260510064624 60 51 0.0 0.0 0.00 0.00 0.00 94 1012.5
20260510064121 60 51 0.0 0.0 0.00 0.00 0.00 94 1012.7
20260510063618 60 51 0.0 0.0 0.00 0.00 0.00 94 1012.4
20260510063115 60 51 0.0 0.0 0.00 0.00 0.00 94 1012.2
20260510062610 60 48 0.0 1.0 0.00 0.00 0.00 94 1012.4
20260510062106 60 50 0.0 0.0 0.00 0.00 0.00 94 1012.2
20260510061603 60 49 0.0 0.0 0.00 0.00 0.00 94 1012.4
20260510061100 60 49 0.0 0.0 0.00 0.00 0.00 94 1012.2
20260510060555 60 49 0.0 0.0 0.00 0.00 0.00 94 1012.4
20260510060053 60 50 0.0 1.0 0.00 0.00 0.00 94 1012.3
20260510055548 60 48 0.0 1.0 0.00 0.00 0.00 93 1012.2
20260510055047 60 50 0.0 0.0 0.00 0.00 0.00 94 1011.9
20260510054542 61 50 0.0 1.0 0.00 0.00 0.00 94 1011.8
20260510054037 61 49 1.0 2.0 0.00 0.00 0.00 94 1011.5
20260510053532 61 51 0.0 0.0 0.00 0.00 0.00 94 1011.5
20260510053029 61 48 0.0 1.0 0.00 0.00 0.00 93 1011.8
20260510052525 61 47 0.0 0.0 0.00 0.00 0.00 93 1011.8
20260510052021 61 52 0.0 1.0 0.00 0.00 0.00 93 1011.7
20260510051517 61 49 0.0 1.0 0.00 0.00 0.00 93 1011.8
20260510051014 61 56 0.0 2.0 0.00 0.00 0.00 94 1012.0
20260510050511 60 49 1.0 1.0 0.00 0.00 0.00 94 1011.5
20260510050008 61 43 0.0 0.0 0.07 0.08 0.08 93 1011.0
20260510045505 61 51 0.0 0.0 0.07 0.08 0.08 93 1011.0
20260510045001 61 46 0.0 0.0 0.05 0.07 0.07 93 1011.4
20260510044458 61 43 0.0 0.0 0.05 0.07 0.07 93 1011.4
20260510043955 61 50 0.0 0.0 0.07 0.06 0.06 93 1011.4
20260510043451 61 61 0.0 0.0 0.12 0.06 0.06 92 1011.4
20260510042949 61 48 0.0 0.0 0.12 0.05 0.05 92 1011.9
20260510042445 61 58 0.0 1.0 0.07 0.04 0.04 92 1012.0
20260510041941 61 49 0.0 1.0 0.00 0.03 0.03 92 1012.3
20260510041438 61 48 0.0 0.0 0.05 0.03 0.03 92 1011.9
20260510040936 61 50 0.0 0.0 0.05 0.03 0.03 92 1011.6
20260510040432 61 53 0.0 1.0 0.00 0.02 0.02 92 1011.5
20260510035928 61 49 0.0 1.0 0.00 0.02 0.02 92 1011.4
20260510035425 62 49 1.0 2.0 0.00 0.02 0.02 91 1011.6
20260510034925 62 54 0.0 7.0 0.00 0.02 0.02 91 1012.0
20260510034424 62 11 1.0 1.0 0.07 0.02 0.02 90 1012.2
20260510033919 62 47 1.0 1.0 0.07 0.02 0.02 90 1011.8
20260510033416 62 55 0.0 2.0 0.00 0.01 0.01 89 1011.9
20260510032913 62 45 1.0 2.0 0.00 0.01 0.01 88 1012.1
20260510032409 62 69 1.0 2.0 0.05 0.01 0.01 87 1011.9
20260510031905 63 55 2.0 3.0 0.05 0.01 0.01 86 1012.1
20260510031401 64 64 1.0 6.0 0.00 0.00 0.00 82 1011.8
20260510030900 67 51 4.0 7.0 0.00 0.00 0.00 71 1011.6
20260510030357 70 53 3.0 7.0 0.00 0.00 0.00 60 1011.3
20260510025855 70 44 0.0 0.0 0.00 0.00 0.00 55 1009.6
20260510025352 70 44 0.0 0.0 0.00 0.00 0.00 53 1009.3
20260510024849 70 44 0.0 0.0 0.00 0.00 0.00 52 1009.4
20260510024346 70 44 0.0 0.0 0.00 0.00 0.00 53 1009.3
20260510023842 70 44 0.0 0.0 0.00 0.00 0.00 53 1009.1
20260510023338 70 44 0.0 0.0 0.00 0.00 0.00 51 1008.9
20260510022836 70 44 0.0 0.0 0.00 0.00 0.00 52 1009.0
20260510022335 70 44 0.0 0.0 0.00 0.00 0.00 51 1008.9
20260510021834 70 44 0.0 0.0 0.00 0.00 0.00 51 1008.9
20260510021333 70 44 0.0 0.0 0.00 0.00 0.00 51 1009.0
20260510020828 70 44 0.0 0.0 0.00 0.00 0.00 51 1008.6
20260510020328 70 44 0.0 0.0 0.00 0.00 0.00 49 1008.7
20260510015825 70 44 0.0 0.0 0.00 0.00 0.00 48 1008.5
20260510015321 70 44 0.0 0.0 0.00 0.00 0.00 48 1008.5
20260510014816 71 44 0.0 0.0 0.00 0.00 0.00 48 1008.2
20260510014313 71 44 0.0 0.0 0.00 0.00 0.00 47 1008.3
20260510013809 71 44 0.0 0.0 0.00 0.00 0.00 47 1008.3
20260510013306 71 44 0.0 0.0 0.00 0.00 0.00 46 1008.1
20260510012801 72 44 0.0 0.0 0.00 0.00 0.00 45 1008.1
20260510012301 72 44 0.0 0.0 0.00 0.00 0.00 45 1008.0
20260510011801 73 44 0.0 0.0 0.00 0.00 0.00 45 1008.1
20260510011256 73 44 0.0 0.0 0.00 0.00 0.00 44 1008.0
20260510010753 74 44 0.0 0.0 0.00 0.00 0.00 43 1008.1
20260510010250 74 44 0.0 0.0 0.00 0.00 0.00 43 1008.1
20260510005747 75 44 0.0 0.0 0.00 0.00 0.00 41 1008.0
20260510005243 75 44 0.0 0.0 0.00 0.00 0.00 42 1008.0
20260510004741 76 44 0.0 0.0 0.00 0.00 0.00 41 1008.1
20260510004239 77 44 0.0 0.0 0.00 0.00 0.00 41 1007.7
20260510003736 78 44 0.0 0.0 0.00 0.00 0.00 39 1007.9
20260510003232 79 44 0.0 0.0 0.00 0.00 0.00 38 1007.6
20260510002731 79 44 0.0 0.0 0.00 0.00 0.00 36 1007.7
20260510002229 80 44 0.0 0.0 0.00 0.00 0.00 37 1007.9
20260510001725 79 45 0.0 0.0 0.00 0.00 0.00 38 1007.8
20260510001224 78 44 0.0 0.0 0.00 0.00 0.00 38 1007.8
20260510000719 78 44 0.0 0.0 0.00 0.00 0.00 40 1007.6
20260510000218 78 50 0.0 0.0 0.00 0.00 0.00 39 1007.9
20260509235714 78 50 0.0 0.0 0.00 0.00 0.00 40 1007.6
20260509235210 78 50 0.0 0.0 0.00 0.00 0.00 39 1007.6
20260509234706 79 50 0.0 0.0 0.00 0.00 0.00 39 1007.8
20260509234203 79 44 0.0 1.0 0.00 0.00 0.00 37 1007.8
20260509233701 79 47 0.0 0.0 0.00 0.00 0.00 38 1007.7
20260509233159 80 44 0.0 1.0 0.00 0.00 0.00 37 1007.8
20260509232655 80 50 0.0 0.0 0.00 0.00 0.00 37 1007.8
20260509232151 81 55 0.0 1.0 0.00 0.00 0.00 35 1007.7
20260509231648 82 55 0.0 1.0 0.00 0.00 0.00 34 1007.5
20260509231146 81 49 0.0 0.0 0.00 0.00 0.00 35 1007.6
20260509230643 81 43 0.0 0.0 0.00 0.00 0.00 34 1007.8
20260509230140 81 44 0.0 0.0 0.00 0.00 0.00 36 1007.5
20260509225635 81 49 0.0 1.0 0.00 0.00 0.00 37 1007.5
20260509225131 82 48 0.0 0.0 0.00 0.00 0.00 32 1007.5
20260509224626 82 49 1.0 2.0 0.00 0.00 0.00 35 1007.5
20260509224124 83 47 0.0 0.0 0.00 0.00 0.00 34 1007.7
20260509223621 83 48 0.0 0.0 0.00 0.00 0.00 34 1007.6
20260509223118 83 55 0.0 0.0 0.00 0.00 0.00 33 1007.7
20260509222614 84 50 0.0 3.0 0.00 0.00 0.00 32 1007.6
20260509222110 84 46 0.0 2.0 0.00 0.00 0.00 32 1007.7
20260509221606 85 48 0.0 1.0 0.00 0.00 0.00 30 1007.6
20260509221102 86 48 0.0 1.0 0.00 0.00 0.00 29 1007.5
20260509220558 88 47 0.0 2.0 0.00 0.00 0.00 29 1007.6